Flag for U.S.A. Weather past 2 weeks in Pittsburgh, Pennsylvania, U.S.A.

Now
75 °F

Sunny.


Feels Like: 77 °F
Forecast: 48 / 82 °F
Wind: 5 mph from South

Location: Allegheny County Airport

Current Time: May 24, 2015 at 1:31:59 PM

Latest Report: May 24, 2015 at 12:53 PM


Visibility: 10 mi

Pressure: 30.32 "Hg

Humidity: 25%

Dew point: 37 °F

Location of PittsburghLocation

Historic Weather in Pittsburgh — Graph

°F

Pittsburgh temperature yesterday

Maximum temperature yesterday: 71 °F (at 5:53 PM)
Minimum temperature yesterday: 42 °F (at 5:53 AM)
Average temperature yesterday: 58 °F

Past Weeks' High & Low Weather Summary

 TemperatureHumidityPressure
High87 °F (May 10, 4:53 PM)91% (May 17, 2:53 AM)30.48 "Hg (May 17, 2:53 AM)
Low41 °F (May 14, 4:53 AM)20% (May 23, 5:53 PM)29.90 "Hg (May 11, 6:53 PM)
Average63 °F58%30.14 "Hg
* Reported May 9 11:53 AM — May 24 11:53 AM, Pittsburgh, Weather by CustomWeather, © 2015

Note: Actual official high and low records may vary slightly from our data, if they occured in-between our weather recording intervals... More about our weather records

Advertising

Pittsburgh weather history for previous 24 hours

 ConditionsComfort  
Time TempWeatherWind HumidityBarometerVisibility
11:53 AM
Sun, May 24
74 °FSunny.9 mph26%30.33 "Hg10 mi
10:53 AM71 °FSunny.8 mph35%30.34 "Hg10 mi
9:53 AM67 °FSunny.7 mph42%30.35 "Hg10 mi
8:53 AM60 °FSunny.5 mph56%30.36 "Hg10 mi
7:53 AM55 °FSunny.3 mph64%30.37 "Hg10 mi
6:53 AM51 °FClear.7 mph66%30.36 "Hg10 mi
5:53 AM50 °FClear.8 mph66%30.34 "Hg10 mi
4:53 AM51 °FClear.9 mph61%30.33 "Hg10 mi
3:53 AM49 °FClear.6 mph77%30.33 "Hg8 mi
2:53 AM51 °FClear.7 mph69%30.33 "Hg9 mi
1:53 AM51 °FClear.7 mph69%30.34 "Hg9 mi
12:53 AM56 °FClear.7 mph53%30.35 "Hg10 mi
11:53 PM
Sat, May 23
58 °FClear.5 mph44%30.35 "Hg10 mi
10:53 PM62 °FClear.5 mph35%30.35 "Hg10 mi
9:53 PM67 °FClear.No wind23%30.34 "Hg10 mi
8:53 PM66 °FSunny.5 mph25%30.35 "Hg10 mi
7:53 PM68 °FSunny.6 mph23%30.34 "Hg10 mi
6:53 PM70 °FSunny.10 mph23%30.35 "Hg10 mi
5:53 PM71 °FSunny.7 mph20%30.36 "Hg10 mi
4:53 PM70 °FSunny.5 mph22%30.37 "Hg10 mi
3:53 PM69 °FSunny.9 mph23%30.40 "Hg10 mi
2:53 PM69 °FSunny.7 mph24%30.40 "Hg10 mi
1:53 PM67 °FSunny.6 mph24%30.42 "Hg10 mi
Weather by CustomWeather, © 2015

See weather overviewHow to use our weather pages